| time (UTC) | temp F | wind direction | speed MPH | gust MPH | rain 1hr in | rain 24hr in | rain mn in | humidity % | barometer mb |
| 20260505173018 | 75 | 102 | 1.0 | 7.0 | 0.00 | 0.00 | 0.00 | 43 | 1014.5 |
| 20260505172507 | 75 | 172 | 2.0 | 7.0 | 0.00 | 0.00 | 0.00 | 43 | 1014.4 |
| 20260505172010 | 75 | 117 | 2.0 | 9.0 | 0.00 | 0.00 | 0.00 | 44 | 1014.5 |
| 20260505171516 | 75 | 113 | 4.0 | 9.0 | 0.00 | 0.00 | 0.00 | 43 | 1014.7 |
| 20260505171008 | 75 | 116 | 1.0 | 6.0 | 0.00 | 0.00 | 0.00 | 47 | 1014.8 |
| 20260505170508 | 74 | 258 | 2.0 | 9.0 | 0.00 | 0.00 | 0.00 | 46 | 1014.9 |
| 20260505170028 | 75 | 174 | 2.0 | 9.0 | 0.00 | 0.00 | 0.00 | 46 | 1015.0 |
| 20260505165506 | 74 | 102 | 1.0 | 12.0 | 0.00 | 0.00 | 0.00 | 46 | 1015.0 |
| 20260505164525 | 74 | 117 | 4.0 | 8.0 | 0.00 | 0.00 | 0.00 | 44 | 1015.1 |
| 20260505164004 | 74 | 72 | 2.0 | 8.0 | 0.00 | 0.00 | 0.00 | 48 | 1015.1 |
| 20260505163510 | 73 | 128 | 1.0 | 7.0 | 0.00 | 0.00 | 0.00 | 47 | 1015.0 |
| 20260505163028 | 73 | 113 | 2.0 | 7.0 | 0.00 | 0.00 | 0.00 | 48 | 1014.9 |
| 20260505162511 | 73 | 254 | 2.0 | 9.0 | 0.00 | 0.00 | 0.00 | 50 | 1015.0 |
| 20260505162010 | 73 | 198 | 2.0 | 9.0 | 0.00 | 0.00 | 0.00 | 50 | 1015.0 |
| 20260505161523 | 73 | 122 | 1.0 | 8.0 | 0.00 | 0.00 | 0.00 | 51 | 1015.0 |
| 20260505161014 | 72 | 252 | 1.0 | 8.0 | 0.00 | 0.00 | 0.00 | 50 | 1015.0 |
| 20260505160514 | 72 | 129 | 2.0 | 7.0 | 0.00 | 0.00 | 0.00 | 51 | 1014.9 |
| 20260505153025 | 70 | 116 | 0.0 | 6.0 | 0.00 | 0.00 | 0.00 | 59 | 1014.8 |
| 20260505152508 | 70 | 117 | 2.0 | 4.0 | 0.00 | 0.00 | 0.00 | 58 | 1014.8 |
| 20260505152013 | 70 | 125 | 2.0 | 5.0 | 0.00 | 0.00 | 0.00 | 59 | 1014.7 |
| 20260505151513 | 70 | 144 | 2.0 | 5.0 | 0.00 | 0.00 | 0.00 | 58 | 1014.8 |
| 20260505151009 | 70 | 162 | 1.0 | 3.0 | 0.00 | 0.00 | 0.00 | 60 | 1014.9 |
| 20260505150503 | 69 | 110 | 0.0 | 4.0 | 0.00 | 0.00 | 0.00 | 62 | 1014.8 |
| 20260505140503 | 65 | 96 | 1.0 | 5.0 | 0.00 | 0.00 | 0.00 | 70 | 1015.0 |
| 20260505124530 | 60 | 146 | 0.0 | 3.0 | 0.00 | 0.00 | 0.00 | 76 | 1014.7 |
| 20260505124005 | 60 | 141 | 1.0 | 3.0 | 0.00 | 0.00 | 0.00 | 76 | 1014.7 |
| 20260505123503 | 60 | 139 | 0.0 | 2.0 | 0.00 | 0.00 | 0.00 | 77 | 1014.7 |
| 20260505122513 | 59 | 103 | 0.0 | 2.0 | 0.00 | 0.00 | 0.00 | 77 | 1014.7 |
| 20260505122008 | 58 | 124 | 0.0 | 0.0 | 0.00 | 0.00 | 0.00 | 79 | 1014.7 |
| 20260505121527 | 58 | 94 | 0.0 | 0.0 | 0.00 | 0.00 | 0.00 | 80 | 1014.8 |
| 20260505121009 | 57 | 148 | 0.0 | 0.0 | 0.00 | 0.00 | 0.00 | 81 | 1014.7 |
| 20260505120506 | 57 | 119 | 0.0 | 0.0 | 0.00 | 0.00 | 0.00 | 83 | 1014.6 |
| 20260505120029 | 56 | 144 | 0.0 | 0.0 | 0.00 | 0.00 | 0.00 | 83 | 1014.6 |
| 20260505115508 | 56 | 144 | 0.0 | 0.0 | 0.00 | 0.00 | 0.00 | 82 | 1014.7 |
| 20260505115008 | 56 | 144 | 0.0 | 0.0 | 0.00 | 0.00 | 0.00 | 83 | 1014.4 |
| 20260505114511 | 55 | 144 | 0.0 | 0.0 | 0.00 | 0.00 | 0.00 | 83 | 1014.3 |
| 20260505114007 | 55 | 144 | 0.0 | 0.0 | 0.00 | 0.00 | 0.00 | 84 | 1014.2 |
| 20260505113509 | 55 | 144 | 0.0 | 0.0 | 0.00 | 0.00 | 0.00 | 85 | 1014.0 |
| 20260505113009 | 55 | 144 | 0.0 | 0.0 | 0.00 | 0.00 | 0.00 | 86 | 1013.9 |
| 20260505112505 | 54 | 144 | 0.0 | 0.0 | 0.00 | 0.00 | 0.00 | 85 | 1013.8 |
| 20260505112009 | 55 | 144 | 0.0 | 0.0 | 0.00 | 0.00 | 0.00 | 84 | 1013.8 |
| 20260505111524 | 55 | 144 | 0.0 | 0.0 | 0.00 | 0.00 | 0.00 | 84 | 1013.8 |
| 20260505111003 | 55 | 144 | 0.0 | 0.0 | 0.00 | 0.00 | 0.00 | 83 | 1013.9 |
| 20260505110506 | 55 | 144 | 0.0 | 0.0 | 0.00 | 0.00 | 0.00 | 83 | 1013.8 |
| 20260505102011 | 58 | 144 | 0.0 | 0.0 | 0.00 | 0.00 | 0.00 | 75 | 1013.3 |
| 20260505101512 | 58 | 144 | 0.0 | 0.0 | 0.00 | 0.00 | 0.00 | 75 | 1013.2 |
| 20260505101010 | 58 | 144 | 0.0 | 0.0 | 0.00 | 0.00 | 0.00 | 74 | 1013.2 |
| 20260505100506 | 58 | 143 | 0.0 | 0.0 | 0.00 | 0.00 | 0.00 | 74 | 1013.1 |
| 20260505100011 | 58 | 137 | 0.0 | 0.0 | 0.00 | 0.00 | 0.00 | 74 | 1013.2 |
| 20260505095509 | 58 | 126 | 0.0 | 0.0 | 0.00 | 0.00 | 0.00 | 74 | 1013.1 |
| 20260505095007 | 58 | 136 | 0.0 | 3.0 | 0.00 | 0.00 | 0.00 | 74 | 1013.0 |
| 20260505094535 | 59 | 120 | 0.0 | 4.0 | 0.00 | 0.00 | 0.00 | 73 | 1012.8 |
| 20260505094004 | 58 | 115 | 0.0 | 4.0 | 0.00 | 0.00 | 0.00 | 73 | 1012.8 |
| 20260505093504 | 58 | 154 | 0.0 | 4.0 | 0.00 | 0.00 | 0.00 | 73 | 1012.9 |
| 20260505093024 | 58 | 165 | 0.0 | 3.0 | 0.00 | 0.00 | 0.00 | 74 | 1012.8 |
| 20260505092506 | 58 | 136 | 0.0 | 0.0 | 0.00 | 0.00 | 0.00 | 74 | 1012.9 |
| 20260505092005 | 58 | 136 | 0.0 | 0.0 | 0.00 | 0.00 | 0.00 | 74 | 1012.9 |
| 20260505091520 | 58 | 142 | 0.0 | 0.0 | 0.00 | 0.00 | 0.00 | 74 | 1013.0 |
| 20260505091007 | 58 | 143 | 0.0 | 0.0 | 0.00 | 0.00 | 0.00 | 74 | 1013.0 |
| 20260505090020 | 58 | 120 | 0.0 | 0.0 | 0.00 | 0.00 | 0.00 | 74 | 1012.9 |
| 20260505085507 | 58 | 141 | 0.0 | 0.0 | 0.00 | 0.00 | 0.00 | 73 | 1012.9 |
| 20260505085010 | 58 | 136 | 0.0 | 1.0 | 0.00 | 0.00 | 0.00 | 72 | 1012.8 |
| 20260505084512 | 58 | 135 | 0.0 | 3.0 | 0.00 | 0.00 | 0.00 | 72 | 1013.0 |
| 20260505083509 | 58 | 125 | 0.0 | 1.0 | 0.00 | 0.00 | 0.00 | 73 | 1013.0 |
| 20260505083016 | 58 | 127 | 0.0 | 1.0 | 0.00 | 0.00 | 0.00 | 73 | 1013.0 |
| 20260505082511 | 58 | 142 | 0.0 | 1.0 | 0.00 | 0.00 | 0.00 | 73 | 1013.0 |
| 20260505082012 | 58 | 142 | 0.0 | 1.0 | 0.00 | 0.00 | 0.00 | 73 | 1013.1 |
| 20260505081527 | 58 | 142 | 0.0 | 1.0 | 0.00 | 0.00 | 0.00 | 73 | 1013.0 |
| 20260505081011 | 58 | 142 | 0.0 | 1.0 | 0.00 | 0.00 | 0.00 | 73 | 1013.1 |
| 20260505080507 | 58 | 134 | 0.0 | 0.0 | 0.00 | 0.00 | 0.00 | 73 | 1013.2 |
| 20260505080024 | 58 | 134 | 0.0 | 1.0 | 0.00 | 0.00 | 0.00 | 74 | 1013.2 |
| 20260505075012 | 57 | 132 | 0.0 | 0.0 | 0.00 | 0.00 | 0.00 | 75 | 1013.3 |
| 20260505074521 | 57 | 133 | 0.0 | 0.0 | 0.00 | 0.00 | 0.00 | 76 | 1013.4 |
| 20260505074009 | 57 | 103 | 0.0 | 1.0 | 0.00 | 0.00 | 0.00 | 76 | 1013.4 |
| 20260505073508 | 57 | 143 | 0.0 | 1.0 | 0.00 | 0.00 | 0.00 | 76 | 1013.7 |
| 20260505073020 | 57 | 143 | 0.0 | 0.0 | 0.00 | 0.00 | 0.00 | 77 | 1013.7 |
| 20260505072508 | 57 | 144 | 0.0 | 0.0 | 0.00 | 0.00 | 0.00 | 77 | 1013.7 |
| 20260505072011 | 56 | 144 | 0.0 | 0.0 | 0.00 | 0.00 | 0.00 | 78 | 1013.6 |
| 20260505071529 | 56 | 144 | 0.0 | 0.0 | 0.00 | 0.00 | 0.00 | 79 | 1013.6 |
| 20260505071008 | 56 | 144 | 0.0 | 0.0 | 0.00 | 0.00 | 0.00 | 80 | 1013.5 |
| 20260505070511 | 56 | 144 | 0.0 | 0.0 | 0.00 | 0.00 | 0.00 | 80 | 1013.6 |
| 20260505070013 | 56 | 144 | 0.0 | 0.0 | 0.00 | 0.00 | 0.00 | 80 | 1013.5 |
| 20260505065505 | 56 | 144 | 0.0 | 0.0 | 0.00 | 0.00 | 0.00 | 80 | 1013.5 |
| 20260505065009 | 56 | 144 | 0.0 | 0.0 | 0.00 | 0.00 | 0.00 | 79 | 1013.5 |
| 20260505064524 | 56 | 144 | 0.0 | 0.0 | 0.00 | 0.00 | 0.00 | 80 | 1013.6 |
| 20260505063508 | 57 | 144 | 0.0 | 0.0 | 0.00 | 0.00 | 0.00 | 79 | 1013.6 |
| 20260505063026 | 57 | 143 | 0.0 | 0.0 | 0.00 | 0.00 | 0.00 | 78 | 1013.6 |
| 20260505062507 | 57 | 144 | 0.0 | 0.0 | 0.00 | 0.00 | 0.00 | 78 | 1013.7 |
| 20260505061523 | 57 | 144 | 0.0 | 0.0 | 0.00 | 0.00 | 0.00 | 77 | 1013.7 |
| 20260505061013 | 58 | 144 | 0.0 | 0.0 | 0.00 | 0.00 | 0.00 | 77 | 1013.8 |
| 20260505060508 | 58 | 144 | 0.0 | 0.0 | 0.00 | 0.00 | 0.00 | 76 | 1013.8 |
| 20260505060035 | 58 | 144 | 0.0 | 0.0 | 0.00 | 0.00 | 0.00 | 75 | 1013.8 |
| 20260505055513 | 58 | 144 | 0.0 | 0.0 | 0.00 | 0.00 | 0.00 | 75 | 1013.8 |
| 20260505055006 | 58 | 144 | 0.0 | 0.0 | 0.00 | 0.00 | 0.00 | 75 | 1013.8 |
| 20260505054011 | 59 | 144 | 0.0 | 0.0 | 0.00 | 0.00 | 0.00 | 73 | 1013.8 |
| 20260505053513 | 59 | 143 | 0.0 | 0.0 | 0.00 | 0.00 | 0.00 | 73 | 1013.8 |
| 20260505053016 | 60 | 144 | 0.0 | 0.0 | 0.00 | 0.00 | 0.00 | 72 | 1013.8 |
| 20260505052508 | 60 | 143 | 0.0 | 0.0 | 0.00 | 0.00 | 0.00 | 71 | 1013.9 |
| 20260505052008 | 60 | 144 | 0.0 | 0.0 | 0.00 | 0.00 | 0.00 | 70 | 1013.9 |
| 20260505051007 | 61 | 143 | 0.0 | 0.0 | 0.00 | 0.00 | 0.00 | 68 | 1013.9 |
| 20260505041524 | 63 | 124 | 0.0 | 0.0 | 0.00 | 0.00 | 0.00 | 63 | 1013.6 |
| 20260505041010 | 64 | 123 | 0.0 | 2.0 | 0.00 | 0.00 | 0.00 | 63 | 1013.6 |
| 20260505040510 | 64 | 134 | 0.0 | 2.0 | 0.00 | 0.00 | 0.00 | 63 | 1013.7 |
| 20260505040021 | 64 | 127 | 0.0 | 1.0 | 0.00 | 0.00 | 0.00 | 62 | 1013.6 |
| 20260505035010 | 64 | 127 | 0.0 | 1.0 | 0.00 | 0.00 | 0.00 | 60 | 1013.6 |
| 20260505034528 | 64 | 136 | 0.0 | 1.0 | 0.00 | 0.00 | 0.00 | 60 | 1013.7 |
| 20260505034008 | 65 | 100 | 0.0 | 1.0 | 0.00 | 0.00 | 0.00 | 60 | 1013.7 |
| 20260505033508 | 65 | 125 | 0.0 | 1.0 | 0.00 | 0.00 | 0.00 | 59 | 1013.6 |
| 20260505033026 | 65 | 127 | 0.0 | 1.0 | 0.00 | 0.00 | 0.00 | 59 | 1013.7 |
| 20260505032507 | 65 | 137 | 0.0 | 1.0 | 0.00 | 0.00 | 0.00 | 58 | 1013.6 |
| 20260505032008 | 66 | 141 | 0.0 | 1.0 | 0.00 | 0.00 | 0.00 | 56 | 1013.7 |
| 20260505031526 | 66 | 141 | 0.0 | 2.0 | 0.00 | 0.00 | 0.00 | 55 | 1013.7 |
| 20260505031007 | 67 | 143 | 0.0 | 2.0 | 0.00 | 0.00 | 0.00 | 54 | 1013.7 |
| 20260505030506 | 67 | 128 | 0.0 | 2.0 | 0.00 | 0.00 | 0.00 | 54 | 1013.7 |
| 20260505030005 | 67 | 145 | 0.0 | 1.0 | 0.00 | 0.00 | 0.00 | 53 | 1013.7 |
| 20260505025505 | 67 | 141 | 0.0 | 1.0 | 0.00 | 0.00 | 0.00 | 53 | 1013.7 |
| 20260505025002 | 67 | 129 | 0.0 | 3.0 | 0.00 | 0.00 | 0.00 | 53 | 1013.7 |
| 20260505024509 | 67 | 134 | 0.0 | 3.0 | 0.00 | 0.00 | 0.00 | 53 | 1013.6 |
| 20260505024004 | 67 | 158 | 0.0 | 3.0 | 0.00 | 0.00 | 0.00 | 53 | 1013.7 |
| 20260505023503 | 67 | 151 | 0.0 | 2.0 | 0.00 | 0.00 | 0.00 | 53 | 1013.6 |
| 20260505023013 | 68 | 150 | 0.0 | 2.0 | 0.00 | 0.00 | 0.00 | 53 | 1013.6 |
| 20260505022503 | 67 | 167 | 0.0 | 1.0 | 0.00 | 0.00 | 0.00 | 53 | 1013.6 |
| 20260505022004 | 67 | 131 | 0.0 | 1.0 | 0.00 | 0.00 | 0.00 | 53 | 1013.5 |
| 20260505021510 | 67 | 143 | 0.0 | 1.0 | 0.00 | 0.00 | 0.00 | 52 | 1013.5 |
| 20260505021006 | 67 | 139 | 0.0 | 1.0 | 0.00 | 0.00 | 0.00 | 52 | 1013.4 |
| 20260505020503 | 68 | 142 | 0.0 | 1.0 | 0.00 | 0.00 | 0.00 | 53 | 1013.4 |
| 20260505020003 | 68 | 142 | 0.0 | 1.0 | 0.00 | 0.00 | 0.00 | 52 | 1013.4 |
| 20260505015503 | 68 | 142 | 0.0 | 1.0 | 0.00 | 0.00 | 0.00 | 51 | 1013.4 |
| 20260505015003 | 68 | 134 | 0.0 | 0.0 | 0.00 | 0.00 | 0.00 | 51 | 1013.3 |
| 20260505014511 | 69 | 137 | 0.0 | 0.0 | 0.00 | 0.00 | 0.00 | 51 | 1013.3 |
| 20260505014006 | 69 | 137 | 0.0 | 0.0 | 0.00 | 0.00 | 0.00 | 51 | 1013.3 |
| 20260505013502 | 69 | 143 | 0.0 | 0.0 | 0.00 | 0.00 | 0.00 | 51 | 1013.3 |
| 20260505013004 | 69 | 134 | 0.0 | 0.0 | 0.00 | 0.00 | 0.00 | 51 | 1013.3 |
| 20260505012504 | 69 | 134 | 0.0 | 0.0 | 0.00 | 0.00 | 0.00 | 50 | 1013.2 |
| 20260505012004 | 70 | 134 | 0.0 | 0.0 | 0.00 | 0.00 | 0.00 | 50 | 1013.3 |
| 20260505011004 | 70 | 134 | 0.0 | 3.0 | 0.00 | 0.00 | 0.00 | 50 | 1013.2 |
| 20260505010505 | 70 | 145 | 0.0 | 2.0 | 0.00 | 0.00 | 0.00 | 49 | 1013.2 |
| 20260505010005 | 70 | 116 | 0.0 | 2.0 | 0.00 | 0.00 | 0.00 | 49 | 1013.1 |
| 20260505005505 | 71 | 136 | 0.0 | 0.0 | 0.00 | 0.00 | 0.00 | 48 | 1013.2 |
| 20260505005004 | 71 | 136 | 0.0 | 3.0 | 0.00 | 0.00 | 0.00 | 48 | 1013.1 |
| 20260505004503 | 71 | 136 | 0.0 | 3.0 | 0.00 | 0.00 | 0.00 | 47 | 1013.0 |
| 20260505004003 | 72 | 187 | 0.0 | 2.0 | 0.00 | 0.00 | 0.00 | 47 | 1013.0 |
| 20260505003506 | 72 | 163 | 0.0 | 2.0 | 0.00 | 0.00 | 0.00 | 47 | 1013.0 |
| 20260505003004 | 72 | 133 | 0.0 | 3.0 | 0.00 | 0.00 | 0.00 | 47 | 1013.0 |
| 20260505001004 | 73 | 202 | 0.0 | 4.0 | 0.00 | 0.00 | 0.00 | 45 | 1012.9 |
| 20260505000504 | 74 | 150 | 1.0 | 4.0 | 0.00 | 0.00 | 0.00 | 45 | 1012.9 |
| 20260505000014 | 74 | 155 | 1.0 | 4.0 | 0.00 | 0.00 | 0.00 | 45 | 1012.9 |
| 20260504235504 | 74 | 144 | 1.0 | 3.0 | 0.00 | 0.00 | 0.00 | 44 | 1012.9 |
| 20260504235004 | 74 | 125 | 1.0 | 6.0 | 0.00 | 0.00 | 0.00 | 44 | 1012.8 |
| 20260504234507 | 74 | 133 | 3.0 | 6.0 | 0.00 | 0.00 | 0.00 | 43 | 1012.9 |
| 20260504233503 | 75 | 117 | 3.0 | 8.0 | 0.00 | 0.00 | 0.00 | 42 | 1012.8 |
| 20260504233006 | 75 | 124 | 3.0 | 8.0 | 0.00 | 0.00 | 0.00 | 42 | 1012.9 |
| 20260504232004 | 75 | 203 | 2.0 | 8.0 | 0.00 | 0.00 | 0.00 | 42 | 1013.0 |
| 20260504230504 | 75 | 139 | 1.0 | 4.0 | 0.00 | 0.00 | 0.00 | 42 | 1012.9 |
| 20260504230006 | 76 | 220 | 1.0 | 4.0 | 0.00 | 0.00 | 0.00 | 42 | 1012.9 |
| 20260504225007 | 76 | 131 | 1.0 | 6.0 | 0.00 | 0.00 | 0.00 | 41 | 1012.9 |
| 20260504224506 | 76 | 108 | 1.0 | 8.0 | 0.00 | 0.00 | 0.00 | 41 | 1013.0 |
| 20260504224003 | 76 | 154 | 1.0 | 8.0 | 0.00 | 0.00 | 0.00 | 40 | 1013.0 |
| 20260504223503 | 76 | 221 | 1.0 | 9.0 | 0.00 | 0.00 | 0.00 | 41 | 1013.1 |
| 20260504223008 | 76 | 127 | 2.0 | 9.0 | 0.00 | 0.00 | 0.00 | 40 | 1013.1 |
| 20260504222004 | 76 | 121 | 0.0 | 7.0 | 0.00 | 0.00 | 0.00 | 42 | 1013.1 |
| 20260504221506 | 77 | 128 | 2.0 | 7.0 | 0.00 | 0.00 | 0.00 | 40 | 1013.1 |
| 20260504221004 | 77 | 115 | 1.0 | 7.0 | 0.00 | 0.00 | 0.00 | 39 | 1013.1 |
| 20260504220508 | 77 | 129 | 1.0 | 6.0 | 0.00 | 0.00 | 0.00 | 38 | 1013.1 |
| 20260504215004 | 77 | 104 | 1.0 | 7.0 | 0.00 | 0.00 | 0.00 | 41 | 1013.2 |
| 20260504214510 | 77 | 159 | 1.0 | 7.0 | 0.00 | 0.00 | 0.00 | 39 | 1013.1 |
| 20260504214010 | 77 | 206 | 1.0 | 11.0 | 0.00 | 0.00 | 0.00 | 41 | 1013.1 |
| 20260504213504 | 77 | 103 | 1.0 | 12.0 | 0.00 | 0.00 | 0.00 | 42 | 1013.1 |
| 20260504213008 | 77 | 117 | 3.0 | 12.0 | 0.00 | 0.00 | 0.00 | 40 | 1013.2 |
| 20260504212504 | 77 | 81 | 3.0 | 7.0 | 0.00 | 0.00 | 0.00 | 39 | 1013.3 |
| 20260504212003 | 78 | 221 | 3.0 | 10.0 | 0.00 | 0.00 | 0.00 | 38 | 1013.2 |
| 20260504211519 | 78 | 200 | 3.0 | 10.0 | 0.00 | 0.00 | 0.00 | 37 | 1013.2 |
| 20260504211004 | 78 | 152 | 2.0 | 8.0 | 0.00 | 0.00 | 0.00 | 40 | 1013.2 |
| 20260504210504 | 78 | 108 | 3.0 | 8.0 | 0.00 | 0.00 | 0.00 | 40 | 1013.3 |
| 20260504210011 | 78 | 107 | 3.0 | 8.0 | 0.00 | 0.00 | 0.00 | 40 | 1013.3 |
| 20260504205506 | 78 | 127 | 1.0 | 8.0 | 0.00 | 0.00 | 0.00 | 40 | 1013.5 |
| 20260504205005 | 78 | 111 | 4.0 | 8.0 | 0.00 | 0.00 | 0.00 | 39 | 1013.7 |
| 20260504204516 | 79 | 90 | 1.0 | 8.0 | 0.00 | 0.00 | 0.00 | 38 | 1013.7 |
| 20260504204004 | 79 | 216 | 0.0 | 7.0 | 0.00 | 0.00 | 0.00 | 42 | 1013.7 |
| 20260504203508 | 79 | 210 | 1.0 | 7.0 | 0.00 | 0.00 | 0.00 | 41 | 1013.7 |
| 20260504203011 | 78 | 117 | 3.0 | 7.0 | 0.00 | 0.00 | 0.00 | 41 | 1013.7 |
| 20260504202504 | 78 | 200 | 0.0 | 7.0 | 0.00 | 0.00 | 0.00 | 43 | 1013.8 |
| 20260504202004 | 77 | 124 | 2.0 | 11.0 | 0.00 | 0.00 | 0.00 | 42 | 1013.9 |
| 20260504201510 | 78 | 122 | 1.0 | 11.0 | 0.00 | 0.00 | 0.00 | 41 | 1013.9 |
| 20260504201005 | 78 | 135 | 3.0 | 4.0 | 0.00 | 0.00 | 0.00 | 43 | 1014.0 |
| 20260504200505 | 78 | 195 | 1.0 | 8.0 | 0.00 | 0.00 | 0.00 | 43 | 1014.0 |
| 20260504200008 | 78 | 158 | 2.0 | 8.0 | 0.00 | 0.00 | 0.00 | 43 | 1014.1 |
| 20260504195504 | 79 | 224 | 2.0 | 6.0 | 0.00 | 0.00 | 0.00 | 42 | 1014.2 |
| 20260504195004 | 79 | 241 | 1.0 | 7.0 | 0.00 | 0.00 | 0.00 | 41 | 1014.3 |
| 20260504194511 | 79 | 117 | 3.0 | 7.0 | 0.00 | 0.00 | 0.00 | 43 | 1014.3 |
| 20260504194004 | 79 | 135 | 3.0 | 7.0 | 0.00 | 0.00 | 0.00 | 44 | 1014.3 |
| 20260504193504 | 79 | 97 | 1.0 | 9.0 | 0.00 | 0.00 | 0.00 | 44 | 1014.3 |
| 20260504193019 | 78 | 127 | 1.0 | 9.0 | 0.00 | 0.00 | 0.00 | 43 | 1014.4 |
| 20260504192504 | 78 | 115 | 0.0 | 5.0 | 0.00 | 0.00 | 0.00 | 44 | 1014.4 |
| 20260504192006 | 78 | 113 | 2.0 | 5.0 | 0.00 | 0.00 | 0.00 | 43 | 1014.4 |
| 20260504191508 | 78 | 134 | 0.0 | 7.0 | 0.00 | 0.00 | 0.00 | 46 | 1014.6 |
| 20260504191002 | 77 | 83 | 3.0 | 7.0 | 0.00 | 0.00 | 0.00 | 45 | 1014.7 |
| 20260504190504 | 78 | 148 | 1.0 | 6.0 | 0.00 | 0.00 | 0.00 | 46 | 1014.8 |
| 20260504190013 | 77 | 127 | 0.0 | 4.0 | 0.00 | 0.00 | 0.00 | 48 | 1014.8 |
| 20260504185503 | 77 | 152 | 2.0 | 5.0 | 0.00 | 0.00 | 0.00 | 45 | 1014.9 |
| 20260504185006 | 77 | 103 | 1.0 | 5.0 | 0.00 | 0.00 | 0.00 | 46 | 1014.9 |
| 20260504184510 | 77 | 127 | 1.0 | 7.0 | 0.00 | 0.00 | 0.00 | 47 | 1015.0 |
| 20260504184003 | 77 | 121 | 3.0 | 8.0 | 0.00 | 0.00 | 0.00 | 45 | 1015.1 |
| 20260504183504 | 77 | 100 | 3.0 | 8.0 | 0.00 | 0.00 | 0.00 | 45 | 1015.2 |
| 20260504183009 | 77 | 304 | 1.0 | 7.0 | 0.00 | 0.00 | 0.00 | 47 | 1015.2 |
| 20260504182504 | 77 | 151 | 3.0 | 6.0 | 0.00 | 0.00 | 0.00 | 46 | 1015.4 |
| 20260504182005 | 77 | 250 | 0.0 | 6.0 | 0.00 | 0.00 | 0.00 | 46 | 1015.4 |
| 20260504181520 | 76 | 96 | 2.0 | 6.0 | 0.00 | 0.00 | 0.00 | 46 | 1015.4 |
| 20260504181004 | 77 | 146 | 1.0 | 6.0 | 0.00 | 0.00 | 0.00 | 46 | 1015.5 |
| 20260504180506 | 76 | 138 | 2.0 | 6.0 | 0.00 | 0.00 | 0.00 | 47 | 1015.5 |
| 20260504180014 | 77 | 109 | 3.0 | 6.0 | 0.00 | 0.00 | 0.00 | 45 | 1015.5 |
| 20260504175502 | 76 | 106 | 2.0 | 6.0 | 0.00 | 0.00 | 0.00 | 47 | 1015.5 |
| 20260504175004 | 76 | 72 | 2.0 | 6.0 | 0.00 | 0.00 | 0.00 | 49 | 1015.6 |
| 20260504174512 | 76 | 112 | 1.0 | 6.0 | 0.00 | 0.00 | 0.00 | 46 | 1015.6 |
| 20260504174003 | 77 | 73 | 2.0 | 6.0 | 0.00 | 0.00 | 0.00 | 46 | 1015.7 |
| 20260504173503 | 77 | 115 | 0.0 | 4.0 | 0.00 | 0.00 | 0.00 | 48 | 1015.7 |